Погода в Дении

Испания     38°50′23″N   0°05′57″E
темп.,
°C
ветер,
м/с
пор.,
м/с
влажн.,
%
обл.,
%
осадки,
мм/ч
давл.,
гПа
погр.,
м
6 мая, чт
чт623:00+16ю44725 0.0 101764
02:00+14зюз22862 0.0 101614
05:00+14з11810 0.0 101511
08:00+15ююз12810 0.0 101635
11:00+21ююв22512 0.0 1016554
14:00+23юв43495 0.0 1015818
17:00+21ю67535 0.0 1014484
20:00+19ююз57610 0.0 1014310
7 мая, пт
пт723:00+17юз44685 0.0 101563
02:00+18зюз22595 0.0 101522
05:00+18зсз2254100 0.0 101412
08:00+19зсз22500 0.0 101514
11:00+25всв12350 0.0 1016518
14:00+25вюв32420 0.0 10161024
17:00+24юв44410 0.0 1015475
20:00+22ю45500 0.0 1015198
8 мая, сб
сб823:00+20юз33450 0.0 101628
02:00+17с22710 0.0 101721
05:00+16ссз33810 0.0 101739
08:00+16ссз23825 0.0 101781
11:00+21св225993 0.0 1017467
14:00+23вюв3449100 0.0 1016628
17:00+22юв4552100 0.0 1014442
20:00+21юв2250100 0.0 101260
9 мая, вс
вс923:00+17юв115493 0.0 101311
02:00+16ссз33695 0.0 101238
05:00+15ссз3377100 0.0 101059
08:00+16ссз4481100 0.0 1009142
11:00+21ююв225382 0.0 1009457
14:00+24в14520 0.0 1008709
17:00+22ююв47592 0.0 1006518
20:00+19с46760 0.0 1008398
10 мая, пн
пн1023:00+18сз34745 0.0 101067
02:00+18сз3458100 0.0 100961
05:00+18зсз2460100 0.0 1009113
08:00+17зюз12752 1.1 101190
11:00+21ююв45571 0.0 1011941
14:00+21юв336414 0.1 1009921
17:00+21с1261100 1.7 1010488
20:00+18юз1164100 2.3 1010130